DW4338 Bergen NO current weather conditions

sailwx.info

Wind from 294 at 15 knots gusting 30

Air temperature 7.2° C
Dewpoint 2.9° C

Last reported at 2015-Apr-18 08:17 UTC.
Time now 2015-Apr-19 10:59 UTC

Location: N 60°31' E 004°54'.
View on Google Maps.

See reports from other nearby stations

  
Tides and Currents Weather Stations Pressure Air Temp Water Temp Dewpoint Dewpoint Depression Visibility Wind Speed Wind Dir Waves Ship Positions
date/time (UTC)wind fromknots sea level pressurealtimeterstation pressurevisibilityair tempwater tempwave heightnotes
2015-Apr-18 08:17 294 15 gusting 30 7.2
2015-Apr-18 08:02 295 10 gusting 30 6.7
2015-Apr-18 07:47 293 8 gusting 33 6.7
2015-Apr-18 07:32 293 10 gusting 25 6.1
2015-Apr-18 07:17 293 9 gusting 25 6.1
2015-Apr-18 07:02 293 5 gusting 19 5.6
2015-Apr-18 06:47 293 5 gusting 16 5.6
2015-Apr-18 06:32 293 0 gusting 24 5.6
2015-Apr-18 06:17 293 4 gusting 20 5.0
2015-Apr-18 06:02 293 6 gusting 27 5.0
2015-Apr-18 05:47 293 4 gusting 19 5.0
2015-Apr-18 05:32 292 3 gusting 20 4.4
2015-Apr-18 05:17 292 5 gusting 16 4.4
2015-Apr-18 05:02 292 10 gusting 26 4.4
2015-Apr-18 04:47 292 13 gusting 35 4.4
2015-Apr-18 04:32 293 13 gusting 33 4.4
2015-Apr-18 04:17 292 17 gusting 37 4.4
2015-Apr-18 04:02 292 16 gusting 39 4.4
2015-Apr-18 03:47 292 24 gusting 39 3.9
2015-Apr-18 03:32 292 16 gusting 32 3.9
2015-Apr-18 03:17 292 13 gusting 27 3.9
2015-Apr-18 03:02 292 13 gusting 40 3.9
2015-Apr-18 02:47 292 17 gusting 29 3.9
2015-Apr-18 02:32 292 11 gusting 22 3.9
2015-Apr-18 02:17 292 13 gusting 24 3.9
2015-Apr-18 02:01 292 3 gusting 11 3.9
2015-Apr-18 01:46 292 6 gusting 12 4.4
2015-Apr-18 01:31 292 6 gusting 20 4.4
2015-Apr-18 01:16 292 4 gusting 26 4.4
2015-Apr-18 01:01 292 4 gusting 21 4.4
2015-Apr-18 00:46 292 11 gusting 30 4.4
2015-Apr-18 00:31 292 4 gusting 26 4.4
2015-Apr-18 00:16 292 15 gusting 29 4.4
2015-Apr-18 00:01 292 10 gusting 26 4.4
2015-Apr-17 23:46 292 14 gusting 31 4.4
2015-Apr-17 23:31 292 16 gusting 33 4.4
2015-Apr-17 23:16 292 20 gusting 38 4.4
2015-Apr-17 23:01 292 20 gusting 36 4.4
2015-Apr-17 22:46 292 23 gusting 40 4.4
2015-Apr-17 22:31 293 19 gusting 38 4.4
2015-Apr-17 22:16 292 19 gusting 35 4.4
2015-Apr-17 22:01 292 13 gusting 26 4.4
2015-Apr-17 21:46 292 13 gusting 30 4.4
2015-Apr-17 21:31 292 11 gusting 27 4.4
2015-Apr-17 21:16 292 13 gusting 28 4.4
2015-Apr-17 21:01 292 13 gusting 28 5.0
2015-Apr-17 20:46 292 11 gusting 22 5.0
2015-Apr-17 20:31 292 6 gusting 19 5.0
2015-Apr-17 20:16 292 11 gusting 21 5.0
2015-Apr-17 20:01 292 14 gusting 21 5.0
2015-Apr-17 19:46 292 13 gusting 31 5.0
2015-Apr-17 19:31 292 13 gusting 29 5.0
2015-Apr-17 19:16 292 14 gusting 32 5.6
2015-Apr-17 18:47 292 18 gusting 33 6.1
2015-Apr-17 18:31 292 20 gusting 34 6.1
2015-Apr-17 18:16 292 19 gusting 40 6.7
2015-Apr-17 18:01 292 15 gusting 31 7.2
2015-Apr-17 17:46 290 19 gusting 36 7.2
2015-Apr-17 17:30 290 13 gusting 30 7.8
2015-Apr-17 17:15 290 12 gusting 35 7.8
2015-Apr-17 17:00 290 19 gusting 33 7.8
2015-Apr-17 16:45 290 19 gusting 32 7.8
2015-Apr-17 16:30 287 18 gusting 38 7.8
2015-Apr-17 16:15 288 19 gusting 33 8.3
2015-Apr-17 16:00 289 25 gusting 39 8.3
2015-Apr-17 15:45 286 12 gusting 33 8.9
2015-Apr-17 15:30 293 19 gusting 30 9.4
2015-Apr-17 15:15 294 13 gusting 26 9.4
2015-Apr-17 14:45 294 12 gusting 34 9.4
2015-Apr-17 14:30 296 12 gusting 29 10.0
2015-Apr-17 14:15 296 21 gusting 36 9.4
2015-Apr-17 14:00 292 20 gusting 32 9.4
2015-Apr-17 13:45 296 11 gusting 31 9.4
2015-Apr-17 13:30 302 13 gusting 24 10.0
2015-Apr-17 13:16 302 8 gusting 22 10.6
2015-Apr-17 13:00 304 2 gusting 14 10.6
2015-Apr-17 12:45 300 6 gusting 18 10.0
2015-Apr-17 12:30 299 4 gusting 17 10.0
2015-Apr-17 12:15 299 6 gusting 20 9.4
2015-Apr-17 12:00 299 9 gusting 21 9.4
2015-Apr-17 11:45 299 3 gusting 11 9.4
2015-Apr-17 11:30 299 8 gusting 25 8.9
2015-Apr-17 11:15 299 4 gusting 14 9.4
2015-Apr-17 11:00 298 1 gusting 11 9.4
2015-Apr-17 10:45 296 9.4
2015-Apr-17 10:30 296 3 gusting 13 8.3